FW3572 Weather Reports


time (UTC)temp
C
wind
direction
speed
KPH
gust
KPH
rain 1hr
cm
rain 24hr
cm
rain mn
cm
humidity
%
barometer
mb
20260906181541 30 155 4.8 12.9 0.00 0.20 0.00 100 1014.1
20260906181025 30 127 3.2 14.5 0.00 0.20 0.00 100 1014.1
20260906180524 30 115 4.8 14.5 0.00 0.20 0.00 100 1014.1
20260906180031 30 142 6.4 14.5 0.00 0.20 0.00 100 1014.1
20260906175525 30 123 3.2 9.7 0.00 0.20 0.00 100 1014.1
20260906175028 30 120 3.2 12.9 0.00 0.20 0.00 100 1014.1
20260906174526 31 78 1.6 12.9 0.00 0.20 0.00 100 1014.1
20260906174027 32 329 0.0 9.7 0.00 0.20 0.00 100 1014.2
20260906173524 33 334 4.8 9.7 0.00 0.20 0.00 100 1014.2
20260906173020 32 302 1.6 8.0 0.00 0.20 0.00 100 1014.2
20260906172517 32 290 1.6 11.3 0.00 0.20 0.00 100 1014.1
20260906172019 32 224 3.2 11.3 0.00 0.20 0.00 100 1014.1
20260906171515 32 323 0.0 14.5 0.00 0.20 0.00 100 1014.1
20260906171015 33 286 3.2 14.5 0.00 0.20 0.00 100 1014.1
20260906170516 33 42 4.8 12.9 0.00 0.20 0.00 100 1014.1
20260906170010 33 339 4.8 12.9 0.00 0.20 0.00 100 1014.2
20260906165511 32 213 1.6 12.9 0.00 0.20 0.00 100 1014.2
20260906165007 32 239 1.6 17.7 0.00 0.20 0.00 100 1014.3
20260906164506 33 322 4.8 12.9 0.00 0.20 0.00 100 1014.4
20260906164006 32 285 3.2 12.9 0.00 0.20 0.00 100 1014.4
20260906163504 32 333 3.2 12.9 0.00 0.20 0.00 100 1014.4
20260906163002 32 313 1.6 12.9 0.00 0.20 0.00 100 1014.4
20260906162504 32 333 3.2 9.7 0.00 0.20 0.00 100 1014.5
20260906162059 32 296 1.6 12.9 0.00 0.20 0.00 100 1014.6
20260906161559 32 292 1.6 12.9 0.00 0.20 0.00 100 1014.6
20260906161057 31 289 1.6 9.7 0.00 0.20 0.00 100 1014.6
20260906160555 31 227 0.0 9.7 0.00 0.20 0.00 100 1014.8
20260906160054 32 303 4.8 11.3 0.00 0.20 0.00 100 1014.9
20260906155552 32 344 1.6 9.7 0.00 0.20 0.00 100 1015.0
20260906155049 31 225 1.6 8.0 0.00 0.20 0.00 100 1015.0
20260906154548 31 341 1.6 4.8 0.00 0.20 0.00 100 1015.2
20260906154048 31 265 1.6 12.9 0.00 0.20 0.00 100 1015.2
20260906153545 31 254 3.2 12.9 0.00 0.20 0.00 100 1015.3
20260906153046 31 287 3.2 9.7 0.00 0.20 0.00 100 1015.4
20260906152545 31 311 3.2 8.0 0.00 0.20 0.00 100 1015.5
20260906152045 31 289 1.6 9.7 0.00 0.20 0.00 100 1015.5
20260906151545 30 334 4.8 9.7 0.00 0.20 0.00 100 1015.5
20260906151040 30 263 1.6 6.4 0.00 0.20 0.00 100 1015.4
20260906150537 30 328 0.0 8.0 0.00 0.20 0.00 100 1015.4
20260906150035 30 282 3.2 6.4 0.00 0.20 0.00 100 1015.6
20260906145534 29 301 1.6 8.0 0.00 0.20 0.00 100 1015.6
20260906145035 30 306 0.0 8.0 0.00 0.20 0.00 100 1015.6
20260906144536 30 256 0.0 6.4 0.00 0.20 0.00 100 1015.6
20260906144029 30 279 1.6 6.4 0.00 0.20 0.00 100 1015.6
20260906143528 30 303 0.0 9.7 0.00 0.20 0.00 100 1015.5
20260906143026 29 349 3.2 9.7 0.00 0.20 0.00 100 1015.4
20260906142525 29 324 0.0 8.0 0.00 0.20 0.00 100 1015.4
20260906142024 29 326 3.2 9.7 0.00 0.20 0.00 100 1015.3
20260906141529 28 309 3.2 12.9 0.00 0.20 0.00 100 1015.3
20260906141021 28 299 1.6 12.9 0.00 0.20 0.00 100 1015.4
20260906140520 28 284 0.0 8.0 0.00 0.20 0.00 100 1015.4
20260906140020 28 290 1.6 8.0 0.00 0.20 0.00 100 1015.4
20260906135518 28 298 0.0 12.9 0.00 0.20 0.00 100 1015.4
20260906135018 27 282 3.2 12.9 0.00 0.20 0.00 100 1015.4
20260906134521 27 298 0.0 8.0 0.00 0.20 0.00 100 1015.3
20260906134018 27 303 0.0 9.7 0.00 0.20 0.00 100 1015.4
20260906133516 27 283 1.6 8.0 0.00 0.20 0.00 100 1015.4
20260906133015 27 249 0.0 8.0 0.00 0.20 0.00 100 1015.6
20260906132515 27 309 0.0 8.0 0.00 0.20 0.00 100 1015.6
20260906132015 27 272 0.0 11.3 0.00 0.20 0.00 100 1015.5
20260906131512 26 240 3.2 11.3 0.00 0.20 0.00 100 1015.4
20260906131010 26 16 4.8 9.7 0.00 0.20 0.00 100 1015.4
20260906130509 26 256 0.0 12.9 0.00 0.20 0.00 100 1015.6
20260906130008 26 235 3.2 14.5 0.00 0.20 0.00 100 1015.7
20260906125507 26 249 0.0 14.5 0.00 0.20 0.00 100 1015.6
20260906125007 26 280 3.2 12.9 0.00 0.20 0.00 100 1015.5
20260906124506 26 231 0.0 6.4 0.00 0.20 0.00 100 1015.5
20260906124005 25 248 0.0 6.4 0.00 0.20 0.00 100 1015.6
20260906123504 25 231 0.0 12.9 0.00 0.20 0.00 100 1015.5
20260906123005 25 234 3.2 12.9 0.00 0.20 0.00 100 1015.5
20260906122502 25 244 0.0 8.0 0.00 0.20 0.00 100 1015.3
20260906122002 25 234 1.6 8.0 0.00 0.20 0.00 100 1015.3
20260906121601 24 244 0.0 6.4 0.00 0.20 0.00 100 1015.3
20260906121101 24 292 0.0 6.4 0.00 0.20 0.00 100 1015.3
20260906120603 23 278 1.6 8.0 0.00 0.20 0.00 100 1015.2
20260906120059 23 227 1.6 8.0 0.00 0.20 0.00 100 1015.2
20260906115559 23 227 1.6 6.4 0.00 0.20 0.00 100 1015.1
20260906115100 23 228 1.6 6.4 0.00 0.20 0.00 100 1015.1
20260906114601 23 241 0.0 8.0 0.00 0.20 0.00 100 1015.0
20260906114100 23 241 1.6 8.0 0.00 0.20 0.00 100 1015.1
20260906113559 23 238 1.6 11.3 0.00 0.20 0.00 100 1015.0
20260906113058 23 231 0.0 9.7 0.00 0.20 0.00 100 1014.9
20260906112558 23 232 0.0 11.3 0.00 0.20 0.00 100 1014.7
20260906112058 23 241 1.6 11.3 0.00 0.20 0.00 100 1014.7
20260906111600 23 236 1.6 6.4 0.00 0.20 0.00 100 1014.6
20260906111059 23 240 3.2 6.4 0.00 0.20 0.00 100 1014.5
20260906110557 23 232 0.0 8.0 0.00 0.20 0.00 100 1014.5
20260906110058 23 234 1.6 9.7 0.00 0.20 0.00 100 1014.4
20260906105557 23 242 1.6 11.3 0.00 0.20 0.00 100 1014.2
20260906105057 23 233 0.0 4.8 0.00 0.20 0.00 100 1014.1
20260906104603 23 229 1.6 4.8 0.00 0.20 0.00 100 1014.0
20260906104057 23 227 1.6 4.8 0.00 0.20 0.00 100 1014.1
20260906103556 23 227 0.0 4.8 0.00 0.20 0.00 100 1013.9
20260906103058 23 227 0.0 4.8 0.00 0.20 0.00 100 1013.9
20260906102557 23 227 0.0 3.2 0.00 0.20 0.00 100 1013.8
20260906102056 23 227 0.0 1.6 0.00 0.20 0.00 100 1013.8
20260906101559 23 227 0.0 6.4 0.00 0.20 0.00 100 1013.7
20260906101100 23 227 1.6 6.4 0.00 0.20 0.00 100 1013.6
20260906100600 23 227 0.0 6.4 0.00 0.20 0.00 100 1013.6
20260906100055 23 225 0.0 4.8 0.00 0.20 0.00 100 1013.6
20260906095558 23 225 0.0 4.8 0.00 0.20 0.00 100 1013.5
20260906095056 23 223 0.0 4.8 0.00 0.20 0.00 100 1013.4
20260906094608 23 220 0.0 4.8 0.00 0.20 0.00 100 1013.5
20260906094054 23 211 0.0 0.0 0.00 0.20 0.00 100 1013.5
20260906093554 23 212 0.0 0.0 0.00 0.20 0.00 100 1013.3
20260906093128 23 238 0.0 0.0 0.00 0.20 0.00 100 1013.1
20260906092555 23 242 0.0 0.0 0.00 0.20 0.00 100 1012.9
20260906092055 23 245 0.0 0.0 0.00 0.20 0.00 100 1012.8
20260906091605 23 246 0.0 0.0 0.00 0.20 0.00 100 1012.8
20260906091057 23 248 0.0 0.0 0.00 0.20 0.00 100 1012.8
20260906090555 24 248 0.0 0.0 0.00 0.20 0.00 100 1012.7
20260906090054 24 248 0.0 6.4 0.00 0.20 0.00 100 1012.6
20260906085555 24 234 1.6 6.4 0.00 0.20 0.00 100 1012.5
20260906085054 24 244 1.6 6.4 0.00 0.20 0.00 100 1012.5
20260906084553 24 268 1.6 6.4 0.00 0.20 0.00 100 1012.6
20260906084055 24 275 0.0 6.4 0.00 0.20 0.00 100 1012.6
20260906083552 24 294 0.0 6.4 0.00 0.20 0.00 100 1012.7
20260906083052 24 285 0.0 6.4 0.00 0.20 0.00 100 1012.7
20260906082552 24 283 0.0 4.8 0.00 0.20 0.00 100 1012.8
20260906082051 24 280 0.0 4.8 0.00 0.20 0.00 100 1012.9
20260906081552 24 241 0.0 8.0 0.00 0.20 0.00 100 1012.9
20260906081051 24 234 3.2 8.0 0.00 0.20 0.00 100 1012.6
20260906080551 24 227 0.0 6.4 0.00 0.20 0.00 100 1012.7
20260906080050 24 273 0.0 4.8 0.00 0.20 0.00 100 1012.8
20260906075550 24 242 0.0 8.0 0.00 0.20 0.00 100 1012.7
20260906075051 24 234 3.2 8.0 0.00 0.20 0.00 100 1012.5
20260906074553 24 254 1.6 4.8 0.00 0.20 0.00 100 1012.6
20260906074049 24 261 0.0 4.8 0.00 0.20 0.00 100 1012.7
20260906073548 24 249 0.0 0.0 0.00 0.20 0.00 100 1013.0
20260906073047 24 255 0.0 0.0 0.00 0.20 0.00 100 1012.9
20260906072549 24 259 0.0 6.4 0.00 0.20 0.00 100 1012.9
20260906072046 24 275 1.6 6.4 0.00 0.20 0.00 100 1013.0
20260906071546 24 257 0.0 4.8 0.00 0.20 0.00 100 1013.2
20260906071046 24 285 1.6 6.4 0.00 0.20 0.00 100 1013.2
20260906070545 24 277 1.6 6.4 0.00 0.20 0.00 100 1013.2
20260906070045 24 233 0.0 6.4 0.00 0.20 0.00 100 1013.2
20260906065545 24 233 0.0 6.4 0.00 0.20 0.00 100 1013.2
20260906065044 24 242 0.0 6.4 0.00 0.20 0.00 100 1013.4
20260906064544 24 242 0.0 8.0 0.00 0.20 0.00 100 1013.4
20260906064043 24 242 3.2 8.0 0.00 0.20 0.00 100 1013.6
20260906063542 24 246 0.0 8.0 0.00 0.20 0.00 100 1013.6
20260906063041 24 240 0.0 9.7 0.00 0.20 0.00 100 1013.7
20260906062540 24 202 3.2 9.7 0.00 0.20 0.00 100 1013.9
20260906062040 24 222 0.0 8.0 0.00 0.20 0.00 100 1013.9
20260906061540 24 238 1.6 8.0 0.00 0.20 0.00 100 1014.0
20260906061039 24 195 0.0 6.4 0.00 0.20 0.00 100 1014.1
20260906060538 24 215 1.6 6.4 0.00 0.20 0.00 100 1014.0
20260906060036 23 212 1.6 6.4 0.00 0.20 0.00 100 1014.3
20260906055538 23 210 1.6 6.4 0.00 0.20 0.00 100 1014.5
20260906055037 23 217 0.0 8.0 0.00 0.20 0.00 100 1014.6
20260906054540 23 241 3.2 8.0 0.00 0.20 0.00 100 1014.6
20260906054037 23 202 0.0 0.0 0.00 0.20 0.00 100 1014.6
20260906053533 23 202 0.0 6.4 0.00 0.20 0.00 100 1014.7
20260906053039 23 205 1.6 6.4 0.00 0.20 0.00 100 1014.7
20260906052534 23 183 0.0 3.2 0.00 0.20 0.00 100 1014.7
20260906052034 23 183 0.0 4.8 0.00 0.20 0.00 100 1014.8
20260906051546 23 175 0.0 4.8 0.00 0.20 0.00 100 1014.9
20260906051031 23 191 0.0 6.4 0.00 0.20 0.00 100 1014.9
20260906050528 23 192 0.0 6.4 0.00 0.20 0.00 100 1015.0
20260906050026 23 192 1.6 6.4 0.00 0.20 0.00 100 1014.9
20260906045528 23 195 3.2 4.8 0.00 0.20 0.00 100 1015.1
20260906045026 23 200 1.6 4.8 0.00 0.20 0.00 100 1015.1
20260906044525 23 213 0.0 4.8 0.00 0.20 0.00 100 1015.1
20260906044025 23 209 0.0 4.8 0.00 0.20 0.00 100 1015.1
20260906043525 23 207 0.0 6.4 0.00 0.20 0.00 100 1015.1
20260906043025 23 207 1.6 6.4 0.00 0.20 0.00 100 1015.3
20260906042525 23 222 1.6 4.8 0.00 0.20 0.00 100 1015.3
20260906042024 23 222 0.0 4.8 0.00 0.20 0.00 100 1015.3
20260906041524 23 204 0.0 4.8 0.00 0.20 0.00 100 1015.3
20260906041025 23 205 0.0 9.7 0.00 0.20 0.00 100 1015.2
20260906040523 23 204 3.2 19.3 0.00 0.20 0.00 100 1015.1
20260906040028 23 222 4.8 19.3 0.00 0.20 0.00 100 1014.9
20260906035520 23 192 3.2 9.7 0.00 0.20 0.00 100 1015.0
20260906035023 23 219 4.8 12.9 0.00 0.20 0.00 100 1015.0
20260906034522 23 213 4.8 9.7 0.00 0.20 0.20 100 1014.8
20260906034018 23 180 3.2 12.9 0.00 0.20 0.20 100 1014.9
20260906033519 23 227 1.6 12.9 0.00 0.20 0.20 100 1015.0
20260906033030 23 235 3.2 11.3 0.00 0.20 0.20 100 1014.9
20260906032518 23 240 3.2 11.3 0.00 0.20 0.20 100 1014.7
20260906032019 23 207 1.6 11.3 0.00 0.20 0.20 100 1014.7
20260906031518 23 219 3.2 12.9 0.00 0.20 0.20 100 1014.9
20260906031018 23 228 1.6 8.0 0.03 0.20 0.20 100 1015.0
20260906030518 23 236 3.2 6.4 0.03 0.20 0.20 100 1015.1
20260906030018 23 236 0.0 0.0 0.03 0.20 0.20 100 1015.2
20260906025517 23 236 0.0 0.0 0.03 0.20 0.20 100 1015.2
20260906025019 23 237 0.0 0.0 0.03 0.20 0.20 100 1015.3
20260906024532 23 237 0.0 0.0 0.03 0.20 0.20 100 1015.2
20260906024016 23 237 0.0 4.8 0.03 0.20 0.20 100 1015.1
20260906023516 23 237 0.0 8.0 0.03 0.20 0.20 100 1015.1
20260906023019 23 236 0.0 6.4 0.03 0.20 0.20 100 1015.1
20260906022516 23 206 0.0 6.4 0.03 0.20 0.20 100 1015.2
20260906022019 23 194 0.0 6.4 0.03 0.20 0.20 100 1015.1
20260906021517 23 224 0.0 6.4 0.03 0.20 0.20 100 1015.3
20260906021016 23 220 1.6 8.0 0.00 0.18 0.18 100 1015.3
20260906020516 23 236 1.6 8.0 0.00 0.18 0.18 100 1015.1
20260906020015 23 242 3.2 6.4 0.00 0.18 0.18 100 1015.2
20260906015514 23 248 0.0 4.8 0.00 0.18 0.18 100 1015.1
20260906015015 24 257 0.0 6.4 0.00 0.18 0.18 100 1015.1
20260906014524 24 200 0.0 6.4 0.00 0.18 0.18 100 1015.1
20260906014013 24 288 1.6 6.4 0.00 0.18 0.18 100 1015.1
20260906013514 23 253 1.6 6.4 0.00 0.18 0.18 100 1015.0
20260906013034 24 233 0.0 6.4 0.00 0.18 0.18 100 1014.9
20260906012517 23 234 3.2 8.0 0.00 0.18 0.18 100 1014.9
20260906012014 23 192 3.2 11.3 0.00 0.18 0.18 100 1015.1
20260906011518 24 167 3.2 9.7 0.00 0.18 0.18 100 1015.2
20260906011013 24 227 4.8 9.7 0.00 0.18 0.18 100 1015.3
20260906010514 24 188 4.8 16.1 0.00 0.18 0.18 100 1015.4
20260906010013 24 161 4.8 16.1 0.00 0.18 0.18 100 1015.5
20260906005512 24 165 3.2 16.1 0.00 0.18 0.18 100 1015.7
20260906005012 23 165 8.0 20.9 0.00 0.18 0.18 100 1015.9
20260906004511 23 142 6.4 24.1 0.00 0.18 0.18 100 1015.9
20260906004012 23 181 12.9 24.1 0.00 0.18 0.18 100 1016.0
20260906003511 23 157 8.0 24.1 0.00 0.18 0.18 100 1016.1
20260906003012 23 135 14.5 24.1 0.00 0.18 0.18 100 1016.1
20260906002509 24 163 9.7 20.9 0.00 0.18 0.18 100 1016.1
20260906002008 24 181 8.0 20.9 0.00 0.18 0.18 100 1016.0
20260906001506 25 222 8.0 17.7 0.00 0.18 0.18 100 1016.0
20260906001005 25 246 8.0 27.4 0.00 0.18 0.18 100 1015.8
20260906000506 26 208 8.0 27.4 0.00 0.18 0.18 100 1016.1
20260906000004 26 94 0.0 3.2 0.00 0.18 0.18 100 1015.3
20260905235506 26 96 0.0 6.4 0.00 0.18 0.18 100 1015.3
20260905235004 26 44 1.6 9.7 0.00 0.18 0.18 100 1015.5
20260905234504 26 119 3.2 25.7 0.00 0.18 0.18 100 1015.7
20260905234003 26 51 8.0 25.7 0.00 0.18 0.18 100 1015.8
20260905233503 27 323 9.7 22.5 0.00 0.18 0.18 100 1015.8
20260905233003 27 97 1.6 11.3 0.00 0.18 0.18 100 1015.2
20260905232503 27 104 3.2 6.4 0.00 0.18 0.18 100 1014.8
20260905232003 27 132 0.0 6.4 0.00 0.18 0.18 100 1014.6
20260905231503 27 132 3.2 9.7 0.00 0.18 0.18 100 1014.5
20260905231002 27 153 3.2 8.0 0.00 0.18 0.18 100 1014.6
20260905230503 27 163 4.8 9.7 0.00 0.18 0.18 100 1014.6
20260905230002 26 144 3.2 9.7 0.00 0.18 0.18 100 1014.5
20260905225502 26 130 4.8 11.3 0.00 0.18 0.18 100 1014.4
20260905225002 26 117 3.2 11.3 0.00 0.18 0.18 100 1014.5
20260905224503 26 156 3.2 11.3 0.00 0.18 0.18 100 1014.8
20260905224001 26 130 4.8 11.3 0.00 0.18 0.18 100 1014.8
20260905223501 26 150 3.2 16.1 0.00 0.18 0.18 100 1014.9
20260905223002 26 109 4.8 20.9 0.00 0.18 0.18 100 1015.0
20260905222501 26 133 6.4 20.9 0.00 0.18 0.18 100 1014.7
20260905222100 26 136 4.8 14.5 0.00 0.18 0.18 100 1014.5
20260905221615 26 126 1.6 11.3 0.03 0.18 0.18 100 1014.2
20260905221102 26 122 3.2 11.3 0.03 0.18 0.18 100 1013.7
20260905220600 26 117 3.2 16.1 0.03 0.18 0.18 100 1013.6
20260905220059 26 111 4.8 16.1 0.03 0.18 0.18 100 1013.6
20260905215602 26 122 3.2 9.7 0.05 0.18 0.18 100 1013.9
20260905215058 26 98 0.0 6.4 0.13 0.18 0.18 100 1014.1
20260905214601 26 93 3.2 8.0 0.18 0.18 0.18 100 1014.1
20260905214101 26 51 1.6 8.0 0.18 0.18 0.18 100 1014.4
20260905213558 26 5 1.6 8.0 0.18 0.18 0.18 100 1014.6
20260905213105 26 217 0.0 4.8 0.18 0.18 0.18 100 1014.9
20260905212558 26 248 0.0 3.2 0.18 0.18 0.18 100 1014.8
20260905212059 26 252 1.6 8.0 0.18 0.18 0.18 100 1015.1
20260905211601 26 30 0.0 0.0 0.15 0.15 0.15 100 1015.0
20260905211057 26 30 0.0 0.0 0.15 0.15 0.15 100 1014.5
20260905210557 26 30 0.0 0.0 0.15 0.15 0.15 100 1014.6
20260905210059 27 30 0.0 6.4 0.15 0.15 0.15 100 1014.6
20260905205054 28 307 3.2 11.3 0.05 0.05 0.05 100 1014.7
20260905204555 29 233 4.8 16.1 0.00 0.00 0.00 100 1014.4
20260905204053 29 343 3.2 17.7 0.00 0.00 0.00 100 1014.5
20260905203553 30 181 1.6 22.5 0.00 0.00 0.00 100 1014.4
20260905203055 30 155 9.7 22.5 0.00 0.00 0.00 100 1014.1
20260905202654 30 150 6.4 20.9 0.00 0.00 0.00 100 1014.3
20260905202055 30 146 9.7 20.9 0.00 0.00 0.00 100 1013.9
20260905201612 31 102 9.7 22.5 0.00 0.00 0.00 100 1014.0
20260905201052 31 126 12.9 27.4 0.00 0.00 0.00 100 1013.9
20260905200552 31 119 12.9 27.4 0.00 0.00 0.00 100 1013.7
20260905200054 31 152 14.5 33.8 0.00 0.00 0.00 100 1013.3
20260905195553 31 174 19.3 33.8 0.00 0.00 0.00 100 1013.4
20260905195050 31 136 9.7 29.0 0.00 0.00 0.00 100 1013.7
20260905194550 31 153 11.3 29.0 0.00 0.00 0.00 100 1014.0
20260905194051 31 111 11.3 29.0 0.00 0.00 0.00 100 1014.1
20260905193550 31 130 11.3 29.0 0.00 0.00 0.00 100 1014.1
20260905193056 31 133 16.1 29.0 0.00 0.00 0.00 100 1014.5
20260905192546 31 105 11.3 24.1 0.00 0.00 0.00 100 1014.5
20260905192045 31 151 11.3 24.1 0.00 0.00 0.00 100 1014.3
20260905191546 31 101 8.0 25.7 0.00 0.00 0.00 100 1014.4
20260905191045 31 194 12.9 24.1 0.00 0.00 0.00 100 1014.6
20260905190545 32 153 11.3 19.3 0.00 0.00 0.00 100 1014.6
20260905190043 32 121 6.4 19.3 0.00 0.00 0.00 100 1014.6
20260905185542 31 93 8.0 19.3 0.00 0.00 0.00 100 1014.5
20260905185041 31 124 8.0 19.3 0.00 0.00 0.00 100 1014.6
20260905184544 31 116 6.4 17.7 0.00 0.08 0.00 100 1014.5
20260905184041 31 151 4.8 16.1 0.00 0.08 0.00 100 1014.4
20260905183541 32 124 4.8 16.1 0.00 0.08 0.00 100 1014.3
20260905183039 32 336 1.6 16.1 0.00 0.08 0.00 100 1014.4
20260905182537 33 111 3.2 14.5 0.00 0.08 0.00 100 1014.5
20260905182036 33 141 8.0 14.5 0.00 0.08 0.00 100 1014.6